FENGYUN 1C DEB

Satellite information

Favourite Embed

Satellite Type and Status

DEBRISIN ORBIT

Key statistics

Satellite FENGYUN 1C DEB at a glance.

Uptime

9615

Days in orbit

Revolutions

≈ 13.8

Per day

Orbit

SSO

Sun Synchronous Orbit

Inclination

100.2

Latest

Satellite identification and parameters

Extended collection of information and parameters for FENGYUN 1C DEB.

Object identification

Identified? True

Debris? True

Object name: FENGYUN 1C DEB

International designator: 1999-025ABD

Object number (NORAD): 30342

Object ID (CCSDS): 30342

Country: PEOPLES REPUBLIC OF CHINA (PRC)

Current information (Y/N): Y

RCS size: SMALL

Orbital parameters

Period: 104.361 minutes

Inclination: 100.1958 deg

SMA: 7342.648 km

Apoapsis: 1088.482 km

Periapsis: 840.545 km

RAAN: 58.7874 deg

Eccentricy: 0.01688335

Argument of periapsis: 19.031 deg

Mean anomaly: 96.9205 deg

Mean motion: 13.79823879 rev/day

Mean motion (dot): 0.00000771 rev/day2

B* drag term: 0.00071289603 1/REarth

Two-line elements (TLE)

Creation date: Sept. 4, 2025, 10:13 a.m.

Reference frame: TEME

Reference center: EARTH

Epoch: Sept. 4, 2025, 12:13 a.m. UTC

TLE line 0: 0 FENGYUN 1C DEB

TLE line 1: 1 30342U 99025ABD 25247.00924278 .00000771 00000-0 71290-3 0 9996

TLE line 2: 2 30342 100.1958 58.7874 0168834 19.0310 96.9205 13.79823879935130

Live tracking on map

Real-time ground track for satellite FENGYUN 1C DEB.

In-orbit conjunctions

A list of the most updated potential collisions computed for object FENGYUN 1C DEB.

Target Orbit TCA Probability of collision Miss distance Type
NIMBUS 2 DEB SSO 2025-03-20 17:47:42 0.0001435778 140.0 (m) DEBRIS
FENGYUN 1C DEB SSO 2024-11-15 17:31:01 0.0001866335 348.0 (m) DEBRIS
CZ-4C DEB LEO 2024-11-14 05:57:39 0.0006771339 69.0 (m) DEBRIS

Associated space launch

Chinese polar orbiting meteorological satellite

FENGYUN 1C DEB was lifted into orbit during the mission ‘Long March 4B | Feng Yun 1C’, on board a Long March 4B space rocket.

The launch took place on May 10, 1999, 1:33 a.m. from Launch Complex 7.

For more information about the launch, click the button.

Launch to space Long March 4B | Feng Yun 1C
Long March 4B | Feng Yun 1C

Agency: N/A

Status: Launch Successful

Launch date: May 10, 1999, 1:33 a.m. UTC

Rocket: Long March 4B

Launch pad: Launch Complex 7

Location: Taiyuan Satellite Launch Center, People's Republic of China

...

Latest news about this satellite

There are no fresh news available about this satellite. Check back as we update our databases every day.


Newsletter sign-up

Weekly statistics, charts and insights to help you stay on top of the space industry.